Regional Weather Roundup
Issued by NWS

Home | Current Version | Previous Version | Text Only | Print | Product List | Glossary Off
Versions: 1 2 3 4 5 6 7 8 9 10 11 12 13 14 15 16 17 18 19 20 21 22 23 24 25 26 27 28 29 30 31 32 33 34 35 36 37 38 39 40 41 42 43 44 45 46 47 48 49 50

000
ASUS45 KBOU 310110
RWRCO

WEATHER ROUNDUP FOR COLORADO
NATIONAL WEATHER SERVICE DENVER/BOULDER CO
700 PM MDT THU JUL 30 2015

NOTE: "FAIR" INDICATES FEW OR NO CLOUDS BELOW 12000 FEET WITH NO
SIGNIFICANT WEATHER AND/OR OBSTRUCTIONS TO VISIBILITY.

COZ001>005-013-030-031-310200-
...NORTHWEST COLORADO...

CITY           SKY/WX    TMP DP  RH WIND       PRES   REMARKS
CRAIG          SUNNY     87  19   8 E5        30.29F
HAYDEN         SUNNY     82  21  10 SW5       30.33F
MEEKER         SUNNY     86  22   9 S3        30.30F
MOUNT WERNER   NOT AVBL
STEAMBOAT SPGS SUNNY     82  27  13 SW6       30.36S
WALDEN         SUNNY     77  19  11 NW6       30.46S
$$

COZ006>008-011-310200-
...WEST CENTRAL VALLEYS...

CITY           SKY/WX    TMP DP  RH WIND       PRES   REMARKS
GRAND JUNCTION MOSUNNY   91  24   9 W7        30.15F
MONTROSE       SUNNY     89  31  12 NW13      30.24F
EAGLE          MOSUNNY   86  27  11 CALM      30.31F
RIFLE          SUNNY     92  25   9 N3        30.20F
DELTA          SUNNY     95  23   7 NW10      30.18S
NUCLA          SUNNY     88  28  11 N3        30.28R
$$

COZ017>023-064>068-310200-
...SOUTHWEST COLORADO...

CITY           SKY/WX    TMP DP  RH WIND       PRES   REMARKS
DURANGO        TSTM      65  51  60 E9        30.37F
CORTEZ         PTSUNNY   73  50  44 W18G24    30.27F
PAGOSA SPRINGS CLOUDY    72  45  38 SW6       30.44F
TELLURIDE      MOSUNNY   73  28  19 N3        30.53S
WOLF CREEK PAS NOT AVBL
$$

COZ009-010-012-014-032>034-037-058>063-310200-
...CENTRAL COLORADO...

CITY           SKY/WX    TMP DP  RH WIND       PRES   REMARKS
ASPEN          SUNNY     79  28  15 W6        30.40F
BUENA VISTA    PTSUNNY   73  46  38 E10       30.44R
COPPER MTN     MOSUNNY   66  18  15 W13G18    30.78R
BERTHOUD PASS  FAIR      46  37  71 E21G28    30.84F
COTTONWOOD PAS CLOUDY    70  41  35 E14G20    30.60R
GUNNISON       MOSUNNY   81  36  19 NW8       30.40S
KREMMLING      SUNNY     81   3   5 N7G16     30.39F
LEADVILLE      PTSUNNY   67  31  26 E5        30.57S
MONARCH PASS   PTSUNNY   55  41  58 NE17      30.86S
SALIDA         MOSUNNY   78  44  29 SE10G22   30.47R
SUNLIGHT       SUNNY     68  30  24 W3        30.70F
WILKERSON PASS PTSUNNY   59  34  38 E8        30.75S
$$

COZ069>075-310200-
...SAN LUIS VALLEY/SANGRE DE CRISTO MOUNTAINS...

CITY           SKY/WX    TMP DP  RH WIND       PRES   REMARKS
ALAMOSA        MOSUNNY   72  50  45 SE13      30.41S
LA VETA PASS   MOSUNNY   54  43  66 MISG      30.63S
SAGUACHE       PTSUNNY   72  50  46 SE3       30.45F
$$

COZ035-036-038>040-310200-
...NORTHERN COLORADO FRONT RANGE...

CITY           SKY/WX    TMP DP  RH WIND       PRES   REMARKS
DENVER INTL AP MOSUNNY   88  41  19 N10       30.26S
DMNS CITY PARK   N/A     86  39  18 NE9G15    30.25S
AURORA         MOSUNNY   86  44  22 N9        30.28S
FRONT RANGE AP MOSUNNY   86  46  25 NE12      30.27S
ERIE MUNI ARPT SUNNY     87  32  14 N6        30.24S
BOULDER MUN AP SUNNY     86  43  22 N6        30.26S
CENTENNIAL     MOSUNNY   84  46  26 VRB3      30.29S
BROOMFIELD     MOSUNNY   86  36  16 N9        30.29
FORT COLLINS   SUNNY     88  43  20 E9        30.22S
LONGMONT       SUNNY     89  41  18 N6        30.26S
$$

COZ041-046-047-076>085-087-088-310200-
...PIKES PEAK/PALMER DIVIDE AND SOUTHERN FOOTHILLS...

CITY           SKY/WX    TMP DP  RH WIND       PRES   REMARKS
COLO. SPRINGS  MOSUNNY   76  52  43 SE15      30.37R
A. F. ACADEMY  SUNNY     76  51  40 SE12      30.38R
ELLICOTT       MOSUNNY  N/A N/A N/A SE16G22   30.36R
FALCON         MOSUNNY   71  52  51 SE16      30.43R HAZE
FORT CARSON    MOSUNNY   77  54  44 SE9       30.33R
LIMON          MOSUNNY   73  57  57 S15       30.30R
MONUMENT HILL  SUNNY     72  50  46 S13       30.41R
TRINIDAD       PTSUNNY   79  54  41 S6        30.31F
$$

COZ042>045-048>051-090-091-310200-
...NORTHEAST COLORADO...

CITY           SKY/WX    TMP DP  RH WIND       PRES   REMARKS
GREELEY ARPT   SUNNY     86  48  26 E10       30.23S
AKRON          MOSUNNY   72  59  63 SE21G30   30.26F
BURLINGTON     MOSUNNY   80  61  52 SE13      30.23S
WRAY           PTSUNNY   81  59  47 SW10      30.20S
STERLING       MOSUNNY   79  55  44 SE12G18   30.21R
HOLYOKE        NOT AVBL
FORT MORGAN    MOSUNNY   78  56  46 E14       30.25R
$$

COZ086-089-092>099-310200-
...SOUTHEAST COLORADO...

CITY           SKY/WX    TMP DP  RH WIND       PRES   REMARKS
PUEBLO         PTSUNNY   85  51  31 SE18      30.24R
LA JUNTA       SUNNY     85  55  35 SE17G24   30.23R
LAMAR          MOSUNNY   81  63  54 S13       30.19F
SPRINGFIELD      N/A     74  65  73 S8        30.26F
$$



USA.gov is the U.S. government's official web portal to all federal, state and local government web resources and services.